#timestamp,LO_Frequency,Hit,StdDev 
1663898415.3,286047002.7,N
1663898435.1,286047002.2,N
1663898455.9,286047002.0,N
1663898475.7,286047004.0,N
1663898495.5,286047003.9,N
1663898515.4,286047003.3,N
1663898535.2,286047005.8,Y
1663898555.1,286047002.0,P
1663898556.0,286047002.0,P
1663898575.8,286047000.8,P
1663898595.6,286046998.9,N
1663898615.5,286047000.9,N
1663898635.3,286046998.2,N
1663898655.1,286047000.7,N
1663898675.9,286047001.7,N
1663898695.7,286047003.5,N
1663898715.6,286047001.4,N
1663898735.4,286047002.3,N
1663898755.3,286047003.5,N
1663898775.1,286047003.8,N
1663898776.0,286047003.8,N
1663898795.8,286047002.9,N
1663898815.7,286047003.8,N
1663898835.5,286047003.3,N
1663898855.3,286047005.5,Y
1663898875.2,286047002.0,P
1663898895.0,286047000.3,P
1663898895.9,286047000.3,N
1663898915.8,286047002.2,N
1663898935.6,286047002.2,N
1663898955.4,286047001.5,N
1663898975.3,286047001.3,N
1663898995.1,286047001.6,N
1663899015.8,286047002.1,N
1663899035.7,286047000.1,N
1663899055.5,286047002.5,Y
1663899075.4,286047000.1,P
1663899095.2,286047001.8,N
1663899115.0,286047001.8,N
1663899115.9,286047001.8,N
1663899135.8,286047002.6,Y
1663899155.6,286047000.0,P
1663899175.5,286047000.3,N
1663899195.3,286046998.1,P
1663899215.1,286046998.1,N
1663899235.9,286047001.2,N
1663899255.7,286046998.2,N
1663899275.5,286047000.6,N
1663899295.4,286047000.8,N
1663899315.2,286046998.6,N
1663899335.1,286046998.1,N
1663899336.0,286046998.1,N
1663899355.8,286047000.6,N
1663899375.6,286046998.1,N
1663899395.5,286046998.3,N
1663899415.3,286046999.0,N
1663899435.1,286046996.6,N
1663899455.9,286046998.0,N
1663899475.7,286046997.4,N
1663899495.6,286046997.3,N
1663899515.4,286046996.8,N
1663899535.2,286046997.9,N
1663899555.1,286046997.4,N
1663899556.0,286046997.4,N
1663899575.8,286046997.1,N
1663899595.7,286046996.7,N
1663899615.5,286046997.1,N
1663899635.3,286046997.3,N
1663899655.2,286047011.9,Y
1663899675.0,286046999.2,P
1663899675.9,286046999.2,N
1663899695.8,286046997.2,P
1663899715.6,286046998.0,N
1663899735.4,286046993.5,Y
1663899755.3,286046997.7,P
1663899775.1,286046997.7,P
1663899795.9,286046997.7,P
1663899815.7,286046997.7,Y
1663899835.5,286046998.6,P
1663899855.4,286046998.3,P
1663899875.2,286047001.1,P
1663899895.0,286047000.7,N
1663899896.0,286047000.7,N
1663899915.8,286047000.9,N
1663899935.6,286046998.9,N
1663899955.5,286046999.0,N
1663899975.3,286046999.6,N
1663899995.1,286046998.3,N
1663900015.9,286046998.4,N
1663900035.7,286046998.6,N
1663900055.6,286046998.9,N
1663900075.4,286046998.7,N
1663900095.2,286046999.4,N
1663900115.1,286046998.9,N
1663900116.0,286046998.9,N
1663900135.8,286046996.5,Y
1663900155.7,286046999.3,P
1663900175.5,286046998.7,P
1663900195.3,286046998.5,P
1663900215.2,286047001.2,Y
1663900235.0,286047000.6,P
1663900235.9,286047000.6,N
1663900255.8,286047000.8,N
1663900275.6,286047000.7,N
1663900295.4,286047001.0,N
1663900315.3,286047000.2,N
1663900335.1,286046999.9,N
1663900355.8,286047001.0,N
1663900375.7,286047000.5,N
1663900395.5,286047000.9,N
1663900415.4,286047001.2,N
1663900435.2,286047000.6,N
1663900455.0,286047002.4,Y
1663900455.9,286047002.4,P
1663900475.8,286047002.8,N
1663900495.6,286047000.1,N
1663900515.5,286047001.1,N
1663900535.3,286046999.3,N
1663900555.1,286046998.4,N
1663900575.9,286046998.8,N
1663900595.7,286046999.0,N
1663900615.5,286046996.8,N
1663900635.4,286046997.1,N
1663900655.2,286046996.8,N
1663900675.1,286046996.6,N
1663900676.0,286046996.6,N
1663900695.8,286046996.5,N
1663900715.6,286046996.8,N
1663900735.5,286046997.3,N
1663900755.3,286046997.2,N
1663900775.1,286046996.5,N
1663900795.9,286046997.6,N
1663900815.7,286046996.9,N
1663900835.6,286046999.4,N
1663900855.4,286046999.5,N
1663900875.2,286046997.1,N
1663900895.1,286046996.7,N
1663900896.0,286046996.7,N
1663900915.8,286046999.4,N
1663900935.7,286046998.4,N
1663900955.5,286046999.0,N
1663900975.3,286046999.4,N
1663900995.2,286046997.6,N
1663901015.9,286046998.0,N
1663901035.7,286046994.9,Y
1663901055.6,286046998.4,P
1663901075.4,286046998.5,P
1663901095.3,286047001.1,P
1663901115.1,286047001.1,N
1663901116.0,286047001.1,N
1663901135.8,286046998.9,N
1663901155.7,286046998.1,N
1663901175.5,286047000.4,N
1663901195.3,286047000.3,N
1663901215.2,286047000.9,N
1663901235.0,286047000.3,N
1663901235.9,286047000.3,N
1663901255.8,286047000.9,N
1663901275.6,286047000.9,N
1663901295.4,286046998.6,N
1663901315.3,286046998.8,N
1663901335.1,286046998.5,N
1663901355.8,286046998.4,N
1663901375.7,286046998.8,N
1663901395.5,286046999.3,N
1663901415.4,286046999.1,N
1663901435.2,286046998.7,N
1663901455.0,286046999.0,N
1663901455.9,286046999.0,N
1663901475.8,286046998.8,N
1663901495.6,286046998.3,N
1663901515.4,286046998.8,N
1663901535.3,286046999.6,N
1663901555.1,286046998.9,N
1663901575.9,286046999.0,N
1663901595.7,286046998.6,N
1663901615.5,286046999.2,N
1663901635.4,286046998.9,N
1663901655.2,286046998.9,N
1663901675.1,286046998.9,N
1663901676.0,286046998.9,N
1663901695.8,286046999.4,N
1663901715.6,286046998.3,N
1663901735.5,286047001.1,N
1663901755.3,286046998.2,N
1663901775.2,286046999.0,N
1663901795.9,286046999.0,N
1663901815.7,286046999.5,N
1663901835.6,286046998.9,N
1663901855.4,286046997.8,Y
1663901875.2,286046996.6,P
1663901895.1,286046997.1,N
1663901896.0,286046997.1,N
1663901915.8,286046997.0,Y
1663901935.7,286046998.1,P
1663901955.5,286046998.4,P
1663901975.3,286046998.7,P
1663901995.2,286046998.6,Y
